Three Rivers, MI

4:14 PM EDT on April 23, 2017 (GMT -0400)
Three Rivers Municipal-Haines

Weather History for KHAI - October, 2011

Change the Weather History Date:

Thursday, October 27, 2011

  Actual Average Record
Temperature  
Mean Temperature 46 °F -  
Max Temperature 50 °F 59 °F 78 °F (1963)
Min Temperature 39 °F 37 °F 16 °F (1976)
Degree Days  
Heating Degree Days 20    
Moisture  
Dew Point 35 °F    
Average Humidity 73    
Maximum Humidity 87    
Minimum Humidity 47    
Precipitation  
Precipitation 0.00 in - - ()
Sea Level Pressure  
Sea Level Pressure 29.96 in    
Wind  
Wind Speed 5 mph (NNW)    
Max Wind Speed 12 mph    
Max Gust Speed 18 mph    
Visibility 10 miles    
Events Rain    
Averages and records for this station are not official NWS values.
T = Trace of Precipitation, MM = Missing Value Source: NWS Daily Summary

Daily Weather History Graph

Daily Weather History Graph

Search for Another Location

Airport or City:

Trip Planner

Search our weather history database for the weather conditions in past years. The results will help you decide how hot, cold, wet, or windy it might be!

Date:

Astronomy

Oct. 27, 2011 Rise Set
Actual Time 8:08 AM EDT 6:43 PM EDT
Civil Twilight 7:39 AM EDT 7:11 PM EDT
Nautical Twilight 7:07 AM EDT 7:44 PM EDT
Astronomical Twilight 6:34 AM EDT 8:17 PM EDT
Moon 9:12 AM EDT (10/27) 7:09 PM EDT (10/27)
Length of Visible Light 11h 32m
Length of Day
10h 34m
New Moon, 1% of the Moon is Illuminated
Oct 27
New Moon
Nov 2
First Quarter
Nov 10
Full
Nov 18
Last Quarter
Nov 25
New

Hourly Weather History & Observations

Time (EDT) Temp. Windchill Dew Point Humidity Pressure Visibility Wind Dir Wind Speed Gust Speed Precip Events Conditions
12:20 AM 44.6 °F 41.4 °F 41.0 °F 87% 29.90 in 10.0 mi NE 5.8 mph - N/A   Overcast
12:41 AM 44.6 °F 42.2 °F 39.2 °F 81% 29.90 in 10.0 mi NNE 4.6 mph - N/A   Overcast
1:20 AM 44.6 °F 42.2 °F 37.4 °F 76% 29.91 in 10.0 mi North 4.6 mph - N/A   Overcast
1:40 AM 42.8 °F 40.1 °F 37.4 °F 81% 29.91 in 10.0 mi North 4.6 mph - N/A   Overcast
2:00 AM 42.8 °F 39.3 °F 37.4 °F 81% 29.91 in 10.0 mi North 5.8 mph - N/A   Overcast
2:20 AM 42.8 °F 40.1 °F 37.4 °F 81% 29.90 in 10.0 mi North 4.6 mph - N/A   Overcast
2:40 AM 42.8 °F 38.6 °F 37.4 °F 81% 29.91 in 10.0 mi North 6.9 mph - N/A   Overcast
3:00 AM 42.8 °F 39.3 °F 37.4 °F 81% 29.90 in 10.0 mi North 5.8 mph - N/A   Overcast
3:20 AM 42.8 °F 40.1 °F 37.4 °F 81% 29.90 in 10.0 mi North 4.6 mph - N/A   Overcast
3:40 AM 42.8 °F 38.6 °F 37.4 °F 81% 29.90 in 10.0 mi North 6.9 mph - N/A   Overcast
4:00 AM 42.8 °F 38.0 °F 37.4 °F 81% 29.91 in 10.0 mi North 8.1 mph - N/A   Overcast
4:20 AM 42.8 °F 40.1 °F 37.4 °F 81% 29.90 in 10.0 mi North 4.6 mph - N/A   Overcast
4:40 AM 42.8 °F 41.1 °F 37.4 °F 81% 29.90 in 10.0 mi North 3.5 mph - N/A   Overcast
5:20 AM 42.8 °F 41.1 °F 37.4 °F 81% 29.90 in 10.0 mi North 3.5 mph - N/A   Overcast
5:40 AM 42.8 °F 40.1 °F 37.4 °F 81% 29.91 in 10.0 mi North 4.6 mph - N/A   Overcast
6:40 AM 42.8 °F - 37.4 °F 81% 29.92 in 10.0 mi Calm Calm - N/A Rain Rain
7:01 AM 41.0 °F - 37.4 °F 87% 29.92 in 10.0 mi Calm Calm - N/A   Light Drizzle
7:20 AM 41.0 °F - 37.4 °F 87% 29.92 in 10.0 mi Calm Calm - N/A Rain Rain
7:40 AM 41.0 °F 39.0 °F 37.4 °F 87% 29.92 in 10.0 mi NNW 3.5 mph - N/A Rain Rain
8:00 AM 41.0 °F 38.0 °F 37.4 °F 87% 29.92 in 10.0 mi NNW 4.6 mph - N/A Rain Light Rain
8:20 AM 41.0 °F 39.0 °F 37.4 °F 87% 29.93 in 7.0 mi NNW 3.5 mph - N/A Rain Light Rain
8:40 AM 41.0 °F 39.0 °F 37.4 °F 87% 29.94 in 7.0 mi NNW 3.5 mph - N/A Rain Rain
9:00 AM 41.0 °F 39.0 °F 35.6 °F 81% 29.95 in 10.0 mi NE 3.5 mph - N/A Rain Rain
9:20 AM 41.0 °F 38.0 °F 37.4 °F 87% 29.96 in 7.0 mi NNW 4.6 mph - N/A Rain Rain
9:41 AM 41.0 °F - 37.4 °F 87% 29.97 in 5.0 mi Calm Calm - N/A Rain Light Rain
10:00 AM 41.0 °F - 37.4 °F 87% 29.97 in 10.0 mi Calm Calm - N/A   Light Drizzle
10:20 AM 41.0 °F - 37.4 °F 87% 29.97 in 7.0 mi Calm Calm - N/A Rain Light Rain
10:41 AM 41.0 °F 38.0 °F 37.4 °F 87% 29.97 in 10.0 mi NNW 4.6 mph - N/A   Light Drizzle
11:00 AM 41.0 °F - 37.4 °F 87% 29.97 in 10.0 mi Calm Calm - N/A   Overcast
11:20 AM 42.8 °F 39.3 °F 37.4 °F 81% 29.97 in 10.0 mi NW 5.8 mph - N/A   Overcast
11:40 AM 42.8 °F 37.0 °F 37.4 °F 81% 29.98 in 10.0 mi NW 10.4 mph 16.1 mph N/A   Overcast
12:00 PM 42.8 °F 39.3 °F 35.6 °F 76% 29.98 in 10.0 mi NNW 5.8 mph - N/A   Overcast
12:20 PM 44.6 °F 42.2 °F 35.6 °F 71% 29.98 in 10.0 mi NNW 4.6 mph - N/A   Mostly Cloudy
12:40 PM 44.6 °F 40.7 °F 32.0 °F 61% 29.99 in 10.0 mi North 6.9 mph - N/A   Mostly Cloudy
1:01 PM 44.6 °F 41.4 °F 32.0 °F 61% 29.98 in 10.0 mi NNW 5.8 mph - N/A   Mostly Cloudy
1:20 PM 46.4 °F 41.9 °F 33.8 °F 62% 29.98 in 10.0 mi NNW 9.2 mph - N/A   Mostly Cloudy
1:40 PM 46.4 °F 41.1 °F 33.8 °F 62% 29.98 in 10.0 mi NW 11.5 mph - N/A   Mostly Cloudy
2:00 PM 48.2 °F - 33.8 °F 58% 29.97 in 10.0 mi NNW 8.1 mph - N/A   Mostly Cloudy
2:20 PM 46.4 °F 42.4 °F 32.0 °F 57% 29.97 in 10.0 mi NNW 8.1 mph - N/A   Scattered Clouds
2:41 PM 48.2 °F - 32.0 °F 54% 29.97 in 10.0 mi NNE 5.8 mph - N/A   Mostly Cloudy
3:00 PM 46.4 °F 41.9 °F 32.0 °F 57% 29.98 in 10.0 mi NW 9.2 mph - N/A   Overcast
3:20 PM 46.4 °F 41.9 °F 35.6 °F 66% 29.99 in 10.0 mi North 9.2 mph 17.3 mph N/A   Overcast
3:41 PM 46.4 °F 42.9 °F 33.8 °F 62% 29.99 in 10.0 mi North 6.9 mph - N/A   Scattered Clouds
4:00 PM 46.4 °F 41.9 °F 35.6 °F 66% 30.00 in 10.0 mi NW 9.2 mph - N/A   Scattered Clouds
4:20 PM 48.2 °F - 32.0 °F 54% 30.01 in 10.0 mi WNW 9.2 mph - N/A   Scattered Clouds
4:40 PM 46.4 °F 42.9 °F 32.0 °F 57% 30.01 in 10.0 mi North 6.9 mph - N/A   Scattered Clouds
5:00 PM 46.4 °F 44.3 °F 32.0 °F 57% 30.01 in 10.0 mi NNW 4.6 mph - N/A   Scattered Clouds
5:21 PM 50.0 °F - 30.2 °F 47% 30.01 in 10.0 mi NNW 5.8 mph - N/A   Mostly Cloudy
5:40 PM 48.2 °F - 30.2 °F 50% 30.02 in 10.0 mi NNW 10.4 mph 18.4 mph N/A   Mostly Cloudy
6:00 PM 46.4 °F 42.4 °F 30.2 °F 53% 30.03 in 10.0 mi WNW 8.1 mph - N/A   Scattered Clouds
6:21 PM 46.4 °F 43.5 °F 30.2 °F 53% 30.03 in 10.0 mi NW 5.8 mph - N/A   Scattered Clouds
6:40 PM 44.6 °F 40.2 °F 32.0 °F 61% 30.05 in 10.0 mi NW 8.1 mph - N/A   Scattered Clouds
7:00 PM 44.6 °F 40.7 °F 32.0 °F 61% 30.06 in 10.0 mi WNW 6.9 mph - N/A   Clear
7:20 PM 42.8 °F 38.6 °F 32.0 °F 66% 30.08 in 10.0 mi West 6.9 mph - N/A   Clear
7:40 PM 41.0 °F 39.0 °F 32.0 °F 70% 30.09 in 10.0 mi West 3.5 mph - N/A   Clear
8:01 PM 39.2 °F 37.0 °F 32.0 °F 75% 30.10 in 10.0 mi WNW 3.5 mph - N/A   Clear
8:20 PM 39.2 °F - 32.0 °F 75% 30.11 in 10.0 mi Calm Calm - N/A   Clear
8:40 PM 39.2 °F - 32.0 °F 75% 30.11 in 10.0 mi Calm Calm - N/A   Clear
9:01 PM 37.4 °F - 32.0 °F 81% 30.12 in 10.0 mi Calm Calm - N/A   Clear
9:20 PM 35.6 °F - 32.0 °F 87% 30.12 in 10.0 mi Calm Calm - N/A   Clear
9:40 PM 35.6 °F - 32.0 °F 87% 30.13 in 10.0 mi Calm Calm - N/A   Clear
10:01 PM 35.6 °F - 32.0 °F 87% 30.13 in 10.0 mi Calm Calm - N/A   Clear
10:20 PM 35.6 °F - 32.0 °F 87% 30.14 in 10.0 mi Calm Calm - N/A   Clear
10:40 PM 33.8 °F - 32.0 °F 93% 30.14 in 10.0 mi Calm Calm - N/A   Clear
11:01 PM 33.8 °F - 32.0 °F 93% 30.14 in 10.0 mi Calm Calm - N/A   Clear
11:20 PM 32.0 °F - 30.2 °F 93% 30.14 in 10.0 mi Calm Calm - N/A   Clear
11:40 PM 32.0 °F - 30.2 °F 93% 30.14 in 10.0 mi Calm Calm - N/A   Clear